TimeCST,TemperatureF,Dew PointF,Humidity,Sea Level PressureIn,VisibilityMPH,Wind Direction,Wind SpeedMPH,Gust SpeedMPH,PrecipitationIn,Events,Conditions,WindDirDegrees,DateUTC
12:53 AM,23.0,19.9,88,30.16,7.0,Calm,Calm,-,N/A,,Clear,0,2012-12-14 06:53:00
1:53 AM,24.1,21.9,91,30.17,8.0,Calm,Calm,-,N/A,,Clear,0,2012-12-14 07:53:00
2:53 AM,21.9,21.0,96,30.18,5.0,Calm,Calm,-,N/A,,Clear,0,2012-12-14 08:53:00
3:53 AM,21.9,19.9,92,30.18,8.0,Calm,Calm,-,N/A,,Clear,0,2012-12-14 09:53:00
4:53 AM,21.9,19.9,92,30.18,9.0,Calm,Calm,-,N/A,,Clear,0,2012-12-14 10:53:00
5:53 AM,23.0,19.9,88,30.17,9.0,Calm,Calm,-,N/A,,Clear,0,2012-12-14 11:53:00
6:53 AM,23.0,19.9,88,30.18,9.0,Calm,Calm,-,N/A,,Clear,0,2012-12-14 12:53:00
7:53 AM,19.9,18.0,92,30.17,6.0,Calm,Calm,-,N/A,,Clear,0,2012-12-14 13:53:00
8:53 AM,24.1,21.9,91,30.19,7.0,Calm,Calm,-,N/A,,Clear,0,2012-12-14 14:53:00
9:53 AM,27.0,23.0,85,30.19,8.0,Calm,Calm,-,N/A,,Clear,0,2012-12-14 15:53:00
10:53 AM,30.9,24.1,76,30.17,9.0,Calm,Calm,-,N/A,,Clear,0,2012-12-14 16:53:00
11:53 AM,33.1,26.1,75,30.12,9.0,NW,4.6,-,N/A,,Clear,310,2012-12-14 17:53:00
12:53 PM,37.0,26.1,65,30.09,10.0,Calm,Calm,-,N/A,,Clear,0,2012-12-14 18:53:00
1:53 PM,37.9,28.0,68,30.06,10.0,Calm,Calm,-,N/A,,Clear,0,2012-12-14 19:53:00
2:53 PM,37.9,27.0,65,30.04,10.0,Calm,Calm,-,N/A,,Clear,0,2012-12-14 20:53:00
3:53 PM,42.1,25.0,51,30.03,10.0,ESE,6.9,-,N/A,,Clear,110,2012-12-14 21:53:00
4:53 PM,39.9,26.1,58,30.01,10.0,SE,5.8,-,N/A,,Clear,140,2012-12-14 22:53:00
5:53 PM,39.9,26.1,58,30.01,10.0,ESE,8.1,-,N/A,,Clear,120,2012-12-14 23:53:00
6:53 PM,39.0,27.0,62,30.01,10.0,ESE,8.1,-,N/A,,Clear,120,2012-12-15 00:53:00
7:53 PM,39.0,28.0,65,30.00,10.0,ESE,8.1,-,N/A,,Clear,120,2012-12-15 01:53:00
8:53 PM,39.9,28.9,65,29.99,10.0,ESE,9.2,-,N/A,,Clear,110,2012-12-15 02:53:00
9:53 PM,39.9,30.0,68,29.96,10.0,ESE,6.9,-,N/A,,Overcast,110,2012-12-15 03:53:00
10:53 PM,39.9,30.0,68,29.92,10.0,ESE,8.1,-,N/A,,Mostly Cloudy,120,2012-12-15 04:53:00
11:53 PM,41.0,30.0,65,29.89,10.0,ESE,6.9,-,N/A,,Overcast,110,2012-12-15 05:53:00